Location: Castelbiague
(43.0361°N, 0.9246°E)
Time: 15:10:13
(UTC+00:00)

SPOT 1/Viking Rocket - Pass Details

Date: 17 June 2021
Orbit: 778 x 793 km, 98.4° (Epoch: 04 August)

Event Time Altitude Azimuth Distance (km) Brightness Sun altitude
Exits shadow 20:33:47 10° 148° (SSE) 2,332 5.4 -8.7°
Reaches altitude 10° 20:33:48 10° 148° (SSE) 2,324 5.4 -8.7°
Maximum altitude 20:38:48 55° 71° (ENE) 932 3.8 -9.4°
Drops below altitude 10° 20:43:49 10° 355° (N) 2,339 6.8 -10.0°
Sets 20:46:10 0° 351° (N) 3,272 7.8 -10.3°
